sat.trackr.live / text

‹ back to catalog

STARLINK-2571

NORAD 48401 · 2021-038BA

PAYLOAD ACTIVE UNKNOWN

§ Identity

Operator
Country
US
Launch date
2021-05-04
Launch site
AFETR
Launch vehicle
Mass (kg)
RCS (m²)

Purposes: comms

External: N2YO · Heavens-Above · Gunter

§ Orbital elements

Epoch: 2026-09-03T22:02:10.617216Z

Period
94.01 min
Inclination
53.1604°
Eccentricity
0.0001270
Mean motion
15.31692976 rev/d
Perigee alt
469.9 km
Apogee alt
471.6 km
Semi-major
6,848.9 km
B*
1.3011e-5
RAAN
223.4757°
Arg perigee
94.2341°
Mean anomaly
265.8805°
Rev number
29,474

§ Raw data

STARLINK-25711 48401U 21038BA  26246.91817844  .00000039  00000+0  13011-4 0  99942 48401  53.1604 223.4757 0001270  94.2341 265.8805 15.31692976294740

JSON: /api/v1/satellites/48401 · /tle

For live sub-satellite position, see the globe view (requires WebGL).

§ Visibility from observer

Set your observer location to see the next 7 days of passes ≥ 10°. The values pass through the URL so the page stays shareable.

No JS? Fill the form by hand. The geolocation button needs JavaScript.